Home > Weather > Zhengzhou > Past weeks

Flag for China Weather for the Past 2 Weeks in Zhengzhou, Henan, China

Now
73 °F

Fog.


Feels Like: 75 °F
Forecast: 63 / 81 °F
Wind: 10 mph from Northwest

Location: Zhengzhou Airport

Current Time: May 2, 2016 at 7:53:11 AM

Latest Report: May 2, 2016 at 7:00 AM


Visibility: 2 mi

Pressure: 29.59 "Hg

Humidity: 74%

Dew Point: 64 °F

Location of ZhengzhouLocation

Historic Weather in Zhengzhou — Graph

°F

Zhengzhou Temperature Yesterday

Maximum temperature yesterday: 84 °F (at 2:00 PM)
Minimum temperature yesterday: 68 °F (at 4:00 AM)
Average temperature yesterday: 76 °F

High & Low Weather Summary for the Past Weeks

 TemperatureHumidityPressure
High90 °F (Apr 30, 2:00 PM)100% (Apr 24, 4:00 AM)30.07 "Hg (Apr 24, 4:00 AM)
Low52 °F (Apr 17, 6:00 AM)25% (Apr 17, 1:00 PM)29.56 "Hg (May 1, 3:00 PM)
Average66 °F67%29.87 "Hg
* Reported Apr 17 6:00 AM — May 2 6:00 AM, Zhengzhou, Weather by CustomWeather, © 2016

Note: Actual official high and low records may vary slightly from our data, if they occured in-between our weather recording intervals... More about our weather records

Advertising

Zhengzhou Weather History for the Previous 24 Hours

Scroll right to see more
 ConditionsComfort  
Time TempWeatherWind HumidityBarometerVisibility
6:00 AM
Mon, May 2
68 °FFog.1 mph88%29.59 "Hg1 mi
5:00 AM68 °FFog.1 mph88%29.56 "Hg2 mi
4:00 AM70 °FFog.3 mph88%29.56 "Hg2 mi
3:00 AM72 °FFog.3 mph83%29.56 "Hg2 mi
2:00 AM70 °FFog.3 mph88%29.56 "Hg2 mi
1:00 AM68 °FFog.1 mph94%29.59 "Hg2 mi
12:00 AM70 °FFog.3 mph88%29.59 "Hg2 mi
11:00 PM
Sun, May 1
72 °FFog.3 mph83%29.59 "Hg3 mi
10:00 PM73 °FClear.8 mph78%29.59 "Hg4 mi
9:00 PM73 °FPassing clouds.3 mph78%29.59 "HgN/A
8:00 PM75 °FPassing clouds.3 mph74%29.59 "HgN/A
7:00 PM77 °FPassing clouds.6 mph69%29.56 "HgN/A
6:00 PM81 °FPassing clouds.6 mph62%29.56 "HgN/A
5:00 PM81 °FPassing clouds.10 mph62%29.56 "HgN/A
4:00 PM82 °FPassing clouds.8 mph51%29.56 "HgN/A
3:00 PM82 °FPassing clouds.10 mph48%29.56 "HgN/A
2:00 PM84 °FPassing clouds.10 mph40%29.59 "HgN/A
1:00 PM82 °FPassing clouds.8 mph45%29.62 "HgN/A
12:00 PM82 °FPassing clouds.10 mph45%29.65 "HgN/A
11:00 AM79 °FClear.10 mph51%29.65 "Hg5 mi
10:00 AM75 °FClear.8 mph57%29.68 "Hg5 mi
9:00 AM75 °FClear.6 mph57%29.68 "Hg4 mi
8:00 AM72 °FClear.3 mph57%29.68 "Hg4 mi
7:00 AM68 °FClear.6 mph60%29.68 "Hg4 mi
Weather by CustomWeather, © 2016

See weather overviewHow to use our weather pages